When you browse on this site, cookies collect data to enhance your experience and personalize the content and advertising you see.
Visit our Privacy Policy to learn more. By continuing to use the site, you agree to this use of cookies and data.
  • In Romania
  • List of Countries
  • For 7 days
  • Water Temperature
  • Satellite Maps
  • Weather Map
  • Weather Widgets
  • user-avatar
    Login

    Hourly Weather Satif

    Today, 22 January, Tuesday

    Time Temperature Precipitation Wind Pressure Humidity
    00:00 +2°C° 0.1 mm 2 mps 669 mmHg 92%
    01:00 +2°C° 0 mm 2 mps 668 mmHg 92%
    02:00 +2°C° 0 mm 2 mps 668 mmHg 93%
    03:00 +2°C° 0 mm 1 mps 668 mmHg 94%
    04:00 +2°C° 0 mm 1 mps 668 mmHg 93%
    05:00 +2°C° 0 mm 1 mps 668 mmHg 93%
    06:00 +2°C° 0 mm 1 mps 668 mmHg 93%
    07:00 +2°C° 0 mm 1 mps 668 mmHg 87%
    08:00 +3°C° 0 mm 1 mps 668 mmHg 81%
    09:00 +3°C° 0 mm 1 mps 668 mmHg 75%
    10:00 +3°C° 0 mm 2 mps 668 mmHg 69%
    11:00 +4°C° 0 mm 2 mps 668 mmHg 62%
    12:00 +4°C° 0 mm 3 mps 668 mmHg 56%
    13:00 +4°C° 0 mm 3 mps 667 mmHg 55%
    14:00 +5°C° 0 mm 4 mps 667 mmHg 53%
    15:00 +5°C° 0 mm 4 mps 666 mmHg 52%
    16:00 +4°C° 0 mm 3 mps 666 mmHg 59%
    17:00 +3°C° 0 mm 3 mps 666 mmHg 65%
    18:00 +3°C° 0 mm 2 mps 665 mmHg 72%
    19:00 +2°C° 0 mm 2 mps 665 mmHg 73%
    20:00 +1°C° 0 mm 3 mps 665 mmHg 75%
    21:00 +1°C° 0 mm 3 mps 665 mmHg 76%
    22:00 0°C° 0 mm 3 mps 665 mmHg 77%
    23:00 +1°C° 0 mm 2 mps 664 mmHg 77%

    Tomorrow, 23 January, Wednesday

    Time Temperature Precipitation Wind Pressure Humidity
    00:00 +1°C° 0 mm 2 mps 664 mmHg 78%
    01:00 +1°C° 0.2 mm 2 mps 663 mmHg 80%
    02:00 0°C° 0.2 mm 3 mps 663 mmHg 82%
    03:00 0°C° 0.2 mm 3 mps 662 mmHg 83%
    04:00 0°C° 0.2 mm 3 mps 662 mmHg 85%
    05:00 0°C° 0.2 mm 3 mps 662 mmHg 86%
    06:00 0°C° 0.2 mm 3 mps 661 mmHg 87%
    07:00 0°C° 0.7 mm 3 mps 662 mmHg 87%
    08:00 0°C° 0.7 mm 4 mps 662 mmHg 87%
    09:00 0°C° 0.7 mm 4 mps 662 mmHg 86%
    10:00 +1°C° 0 mm 5 mps 662 mmHg 83%
    11:00 +1°C° 0 mm 6 mps 661 mmHg 79%
    12:00 +2°C° 0 mm 7 mps 661 mmHg 76%
    13:00 +2°C° 0.1 mm 7 mps 661 mmHg 75%
    14:00 +2°C° 0.1 mm 7 mps 660 mmHg 75%
    15:00 +1°C° 0.1 mm 8 mps 660 mmHg 74%
    16:00 +1°C° 0.3 mm 8 mps 659 mmHg 79%
    17:00 0°C° 0.3 mm 9 mps 659 mmHg 83%
    18:00 0°C° 0.3 mm 10 mps 658 mmHg 88%
    19:00 0°C° 1.3 mm 8 mps 658 mmHg 90%
    20:00 0°C° 1.3 mm 7 mps 658 mmHg 91%
    21:00 +1°C° 1.3 mm 6 mps 659 mmHg 93%
    22:00 +1°C° 0.5 mm 6 mps 658 mmHg 92%
    23:00 +1°C° 0.5 mm 6 mps 657 mmHg 91%

    Day after tomorrow, 24 January, Thursday

    Time Temperature Precipitation Wind Pressure Humidity
    00:00 0°C° 0.5 mm 5 mps 657 mmHg 90%
    01:00 -1°C° 2.5 mm 6 mps 657 mmHg 91%
    02:00 -1°C° 2.5 mm 7 mps 656 mmHg 92%
    03:00 -2°C° 2.5 mm 7 mps 656 mmHg 93%
    04:00 -2°C° 2.4 mm 7 mps 656 mmHg 94%
    05:00 -3°C° 2.4 mm 7 mps 656 mmHg 94%
    06:00 -4°C° 2.4 mm 7 mps 656 mmHg 95%
    07:00 -5°C° 0.7 mm 9 mps 656 mmHg 90%
    08:00 -5°C° 0.7 mm 10 mps 657 mmHg 86%
    09:00 -7°C° 0.7 mm 12 mps 657 mmHg 82%
    10:00 -6°C° 0.2 mm 13 mps 657 mmHg 84%
    11:00 -6°C° 0.2 mm 14 mps 657 mmHg 85%
    12:00 -7°C° 0.2 mm 15 mps 657 mmHg 87%
    13:00 -7°C° 0.4 mm 15 mps 657 mmHg 87%
    14:00 -7°C° 0.4 mm 15 mps 658 mmHg 88%
    15:00 -5°C° 0.4 mm 14 mps 658 mmHg 89%
    16:00 -5°C° 0.5 mm 13 mps 659 mmHg 91%
    17:00 -4°C° 0.5 mm 11 mps 659 mmHg 92%
    18:00 -4°C° 0.5 mm 10 mps 660 mmHg 94%
    19:00 -4°C° 0.3 mm 10 mps 661 mmHg 94%
    20:00 -4°C° 0.3 mm 10 mps 661 mmHg 95%
    21:00 -4°C° 0.3 mm 10 mps 662 mmHg 96%
    22:00 -4°C° 0.1 mm 9 mps 663 mmHg 96%
    23:00 -4°C° 0.1 mm 8 mps 663 mmHg 96%

    25 January, Friday

    Time Temperature Precipitation Wind Pressure Humidity
    00:00 -3°C° 0.1 mm 7 mps 664 mmHg 97%
    01:00 -3°C° 0.3 mm 6 mps 664 mmHg 97%
    02:00 -2°C° 0.3 mm 5 mps 664 mmHg 97%
    03:00 -2°C° 0.3 mm 5 mps 665 mmHg 97%
    04:00 -2°C° 0.2 mm 5 mps 665 mmHg 96%
    05:00 -3°C° 0.2 mm 6 mps 665 mmHg 95%
    06:00 -3°C° 0.2 mm 7 mps 666 mmHg 95%
    07:00 -4°C° 0.1 mm 8 mps 666 mmHg 94%
    08:00 -4°C° 0.1 mm 8 mps 667 mmHg 93%
    09:00 -4°C° 0.1 mm 9 mps 667 mmHg 92%
    10:00 -4°C° 0 mm 8 mps 667 mmHg 93%
    11:00 -3°C° 0 mm 6 mps 668 mmHg 95%
    12:00 -2°C° 0 mm 5 mps 668 mmHg 96%
    13:00 -2°C° 0.1 mm 5 mps 668 mmHg 96%
    14:00 -2°C° 0.1 mm 5 mps 668 mmHg 95%
    15:00 -1°C° 0.1 mm 4 mps 668 mmHg 94%
    16:00 -2°C° 0.1 mm 4 mps 668 mmHg 94%
    17:00 -2°C° 0.1 mm 4 mps 668 mmHg 93%
    18:00 -3°C° 0.1 mm 4 mps 668 mmHg 93%
    19:00 -2°C° 0 mm 3 mps 669 mmHg 93%
    20:00 -4°C° 0 mm 3 mps 669 mmHg 93%
    21:00 -4°C° 0 mm 3 mps 669 mmHg 93%
    22:00 -5°C° 0 mm 3 mps 669 mmHg 92%
    23:00 -4°C° 0 mm 2 mps 669 mmHg 91%

    26 January, Saturday

    Time Temperature Precipitation Wind Pressure Humidity
    00:00 -5°C° 0 mm 2 mps 669 mmHg 90%
    01:00 -4°C° 0 mm 2 mps 669 mmHg 91%
    02:00 -3°C° 0 mm 2 mps 669 mmHg 92%
    03:00 -2°C° 0 mm 3 mps 670 mmHg 93%
    04:00 -1°C° 0 mm 3 mps 670 mmHg 94%
    05:00 -1°C° 0 mm 3 mps 670 mmHg 95%
    06:00 -1°C° 0 mm 2 mps 670 mmHg 96%
    07:00 -1°C° 0 mm 2 mps 671 mmHg 96%
    08:00 +1°C° 0 mm 2 mps 671 mmHg 97%
    09:00 +1°C° 0 mm 2 mps 671 mmHg 98%
    10:00 +2°C° 0 mm 2 mps 671 mmHg 96%
    11:00 +2°C° 0 mm 2 mps 671 mmHg 95%
    12:00 +3°C° 0 mm 2 mps 671 mmHg 94%
    13:00 +3°C° 0 mm 2 mps 671 mmHg 93%
    14:00 +3°C° 0 mm 2 mps 671 mmHg 92%
    15:00 +3°C° 0 mm 2 mps 671 mmHg 90%
    16:00 +2°C° 0 mm 2 mps 670 mmHg 92%
    17:00 +2°C° 0 mm 1 mps 670 mmHg 93%
    18:00 +2°C° 0 mm 1 mps 670 mmHg 94%
    19:00 +2°C° 0 mm 1 mps 670 mmHg 91%
    20:00 +1°C° 0 mm 2 mps 670 mmHg 88%
    21:00 +1°C° 0 mm 2 mps 670 mmHg 85%
    22:00 +1°C° 0 mm 2 mps 670 mmHg 83%
    23:00 +1°C° 0 mm 2 mps 669 mmHg 82%

    27 January, Sunday

    Time Temperature Precipitation Wind Pressure Humidity
    00:00 +1°C° 0 mm 2 mps 669 mmHg 81%
    01:00 +1°C° 0 mm 2 mps 669 mmHg 79%
    02:00 +1°C° 0 mm 2 mps 668 mmHg 77%
    03:00 +1°C° 0 mm 2 mps 668 mmHg 76%
    04:00 -1°C° 0 mm 2 mps 667 mmHg 75%
    05:00 -1°C° 0 mm 2 mps 667 mmHg 74%
    06:00 -1°C° 0 mm 2 mps 667 mmHg 74%
    07:00 +1°C° 0 mm 2 mps 667 mmHg 75%
    08:00 +2°C° 0 mm 2 mps 668 mmHg 77%
    09:00 +3°C° 0 mm 2 mps 668 mmHg 78%
    10:00 +3°C° 0 mm 3 mps 668 mmHg 78%
    11:00 +4°C° 0 mm 3 mps 668 mmHg 78%
    12:00 +5°C° 0 mm 3 mps 668 mmHg 77%
    13:00 +5°C° 0 mm 3 mps 668 mmHg 79%
    14:00 +5°C° 0 mm 3 mps 667 mmHg 80%
    15:00 +4°C° 0 mm 3 mps 667 mmHg 81%
    16:00 +4°C° 0.1 mm 3 mps 667 mmHg 84%
    17:00 +4°C° 0.1 mm 2 mps 667 mmHg 88%
    18:00 +3°C° 0.1 mm 2 mps 667 mmHg 92%
    19:00 +3°C° 0.1 mm 2 mps 667 mmHg 93%
    20:00 +2°C° 0.1 mm 2 mps 667 mmHg 94%
    21:00 +3°C° 0.1 mm 1 mps 667 mmHg 95%
    22:00 +2°C° 0.2 mm 2 mps 667 mmHg 95%
    23:00 +2°C° 0.2 mm 2 mps 666 mmHg 95%
    Show more